Regional Weather Roundup
Issued by NWS

Home | Current Version | Previous Version | Graphics & Text | Print | Product List | Glossary On
Versions: 1 2 3 4 5 6 7 8 9 10 11 12 13 14 15 16 17 18 19 20 21 22 23 24 25 26 27 28 29 30 31 32 33 34 35 36 37 38 39 40 41 42 43 44 45 46 47 48 49 50
000
ASUS43 KMKX 030311
RWRWI

WISCONSIN REGIONAL WEATHER ROUNDUP
NATIONAL WEATHER SERVICE MILWAUKEE/SULLIVAN WI
1000 PM CDT TUE SEP 02 2014

NOTE: "FAIR" INDICATES FEW OR NO CLOUDS BELOW 12,000 FEET WITH NO
SIGNIFICANT WEATHER AND/OR OBSTRUCTIONS TO VISIBILITY.

WIZ001-002-006>008-014>016-023>028-030400-
NORTHWEST WISCONSIN

CITY           SKY/WX    TMP DP  RH WIND       PRES   REMARKS
SUPERIOR ARPT  CLEAR     54  52  93 CALM      29.81S
ASHLAND        CLEAR     57  53  86 S5        29.86F
HAYWARD        CLEAR     57  54  89 CALM      29.86F
SIREN          CLEAR     61  54  76 S5        29.85F
RICE LAKE      CLEAR     60  54  82 CALM      29.89S
LADYSMITH      CLEAR     58  56  91 CALM      29.90S
EAU CLAIRE     CLEAR     60  58  92 SW5       29.88S
MENOMONIE      CLEAR     61  56  85 CALM      29.89S
NEW RICHMOND   CLEAR     60  55  82 S3        29.88S
OSCEOLA        CLEAR     60  55  84 S3        29.89S
$$

WIZ003>005-009-010-017-018-030400-
NORTH CENTRAL WISCONSIN

CITY           SKY/WX    TMP DP  RH WIND       PRES   REMARKS
WOODRUFF       PTCLDY    59  54  81 N5        29.91S
RHINELANDER    CLEAR     51  51 100 W3        29.91S FOG
EAGLE RIVER    PTCLDY    56  49  76 N10       29.91R
LAND O LAKES   PTCLDY    57  51  79 N8        29.93S
PHILLIPS       CLEAR     56  54  91 CALM      29.89S
TOMAHAWK       CLEAR     52  51  95 CALM      29.91S
MEDFORD        CLEAR     53  52  99 CALM      29.91S
MERRILL        CLEAR     53  52  98 CALM      29.91R
$$

WIZ029-030-035-036-043>047-030400-
CENTRAL WISCONSIN

CITY           SKY/WX    TMP DP  RH WIND       PRES   REMARKS
WAUSAU         CLEAR     60  57  89 CALM      29.89R
MOSINEE        CLEAR     61  57  88 CALM      29.91S
MARSHFIELD     CLEAR     60  56  86 W3        29.91R
STEVENS POINT  CLEAR     57  56  97 CALM      29.91S
WAUPACA        CLEAR     61  59  92 CALM      29.90S
WAUTOMA        CLEAR     59  58  96 CALM      29.91S
WISC RAPIDS    CLEAR     60  57  89 CALM      29.91S
CAMP DOUGLAS   CLEAR     59  59 100 SE3       29.91R
$$

WIZ011>013-019>022-031-037>040-048>050-030400-
NORTHEAST WISCONSIN

CITY           SKY/WX    TMP DP  RH WIND       PRES   REMARKS
ANTIGO         CLEAR     56  53  89 CALM      29.92R
STURGEON BAY   CLEAR     63  57  82 SW5       29.88S
GREEN BAY      CLEAR     61  59  93 CALM      29.88S
MANITOWOC      CLEAR     62  60  93 CALM      29.90S
APPLETON       PTCLDY    64  55  72 SW6       29.90S
CLINTONVILLE   CLEAR     59  57  94 CALM      29.89S
OSHKOSH        CLEAR     61  57  87 SW3       29.90R
$$

WIZ032>034-041-042-053>061-030400-
SOUTHWEST WISCONSIN

CITY           SKY/WX    TMP DP  RH WIND       PRES   REMARKS
LA CROSSE      CLEAR     66  60  81 SE5       29.90R
SPARTA         CLEAR     59  58  96 CALM      29.92S
VIROQUA        FAIR      63  58  86 S3        29.94R
BOSCOBEL       CLEAR     63  60  90 CALM      29.94R
PRAIRIE DU CHI CLEAR     63  59  89 E3        29.93S
PLATTEVILLE    FAIR      65  58  78 CALM      29.96S
$$

WIZ056-057-062-063-064-067-068-030400-
SOUTH CENTRAL WISCONSIN

CITY           SKY/WX    TMP DP  RH WIND       PRES   REMARKS
BARABOO/DELLS  CLEAR     62  56  83 CALM      29.92S
LONE ROCK      CLEAR     64  58  80 CALM      29.93R
WATERTOWN      CLEAR     61  58  91 CALM      29.93R
MADISON        CLEAR     62  57  83 CALM      29.93R
MIDDLETON      FAIR      61  61  99 CALM      29.94R
MONROE         CLEAR     68  57  68 W6        29.95R
JANESVILLE     CLEAR     64  61  88 CALM      29.93S
$$

WIZ051-052-058>065-066-070>072-030400-
SOUTHEAST WISCONSIN

CITY           SKY/WX    TMP DP  RH WIND       PRES   REMARKS
MILWAUKEE      CLEAR     67  58  72 CALM      29.93R
WAUKESHA       CLEAR     63  55  77 SW3       29.94S
MILWAUKEE/TIMM CLEAR     63  55  77 CALM      29.94R
RACINE         CLEAR     67  59  75 W6        29.95R
BURLINGTON     CLEAR     58  58  98 CALM      29.94S
KENOSHA        CLEAR     62  60  93 CALM      29.94R
FOND DU LAC    CLEAR     59  57  93 S3        29.91S
SHEBOYGAN      CLEAR     60  58  92 S5        29.91R
WEST BEND      CLEAR     61  55  82 CALM      29.92S
JUNEAU         CLEAR     62  59  91 CALM      29.94R
$$

LSZ147-162-030400-
LAKE SUPERIOR

STATION/POSITION TIME  TEMP    WIND        PRES    WAVE
                       AIR SEA DIR/SP/G            HT/PER
                 (UTC) (F)     (DEG/KT/KT) (MB)    (FT/S)
W MID LAKE BUOY  0250   60 57  190/ 16/ 17 1008.9R   3/ 5
DEVILS ISLAND    0300   59     170/ 12/ 17 1009.7S
PORT WING        0200   58     160/  3/  5 1010.2S
SAXON HARBOR     0200   58     180/  5/  8 1011.2F
$$

LMZ867-665-643>646-030400-
LAKE MICHIGAN

STATION/POSITION TIME  TEMP    WIND        PRES    WAVE
                       AIR SEA DIR/SP/G            HT/PER
                 (UTC) (F)     (DEG/KT/KT) (MB)    (FT/S)
N MID LAKE BUOY  0250   66 65  230/ 10/ 10 1010.9R   2/ 4
NORTHPORT PIER   0200   64     220/  2/  5 1010.8R
SISTER BAY       0211   66        CALM       N/A
KEWAUNEE LAKESHO 0200   65     290/  1/  1 1011.1R
SHEBOYGAN LAKESH 0300   67 49  220/  5/  5 1012.8R
ATWATER BUOY     0300   67     190/  4/  4 1014.3R
MILWAUKEE LAKESH 0200   68     220/  1/  2   N/A
S MID LAKE BUOY  0250   72 72  180/  6/  6 1013.5R   0
KENOSHA   LAKESH 0300   72     280/  6/  7 1013.2R
$$

TC  - TEMPERATURE IN CELSIUS
VSB - VISIBILITY IN STATUTE MILES
WCI - WIND CHILL INDEX
HX  - HEAT INDEX



USA.gov is the U.S. government's official web portal to all federal, state and local government web resources and services.